Location: Unspecified
(0.0000°N, 0.0000°E)
Time: 23:12:28
(UTC+00:00)

Vanguard 2 Rocket - Pass Details

Date: 22 December 2018
Orbit: 554 x 3327 km, 32.9° (Epoch: 19 January)

Event Time Altitude Azimuth Distance (km) Brightness Sun altitude
Rises 22:28:21 0° 229° (SW) 7,271 12.0 -57.9°
Reaches altitude 10° 22:33:40 10° 226° (SW) 6,101 11.4 -58.8°
Enters shadow 22:45:55 44° 205° (SSW) 3,383 9.7 -60.6°
Maximum altitude 22:51:40 62° 148° (SSE) 2,562 - -61.5°
Drops below altitude 10° 23:02:22 10° 70° (ENE) 3,841 - -62.9°
Sets 23:04:54 0° 66° (ENE) 4,528 - -63.2°
